This is the latest recevied weather packets stored in our database for station/object DG4MJS-10. If no packets are shown the sender has not sent any weather packets the latest 10 day(s).
| Time | Temp. | Humidity | Pressure | Rain* | Wind** | Luminosity | Snow |
|---|---|---|---|---|---|---|---|
| 1778226321 | 12.78° C | 69% | 1016.6 hPa | - | - | - | - |
| 1778225421 | 12.78° C | 71% | 1016.6 hPa | - | - | - | - |
| 1778224521 | 12.22° C | 72% | 1016.6 hPa | - | - | - | - |
| 1778223621 | 11.67° C | 72% | 1016.5 hPa | - | - | - | - |
| 1778222721 | 11.11° C | 72% | 1016.6 hPa | - | - | - | - |
| 1778221821 | 10.56° C | 72% | 1016.7 hPa | - | - | - | - |
| 1778220921 | 10.56° C | 70% | 1016.6 hPa | - | - | - | - |
| 1778220021 | 10° C | 69% | 1016.6 hPa | - | - | - | - |
| 1778219120 | 10° C | 69% | 1016.3 hPa | - | - | - | - |
| 1778218220 | 10° C | 66% | 1016.2 hPa | - | - | - | - |
| 1778217319 | 9.44° C | 69% | 1016.3 hPa | - | - | - | - |
| 1778216419 | 10° C | 66% | 1016.1 hPa | - | - | - | - |
| 1778215519 | 9.44° C | 66% | 1015.8 hPa | - | - | - | - |
| 1778214619 | 9.44° C | 64% | 1015.9 hPa | - | - | - | - |
| 1778213721 | 9.44° C | 64% | 1015.8 hPa | - | - | - | - |
| 1778212821 | 9.44° C | 64% | 1015.8 hPa | - | - | - | - |
| 1778211921 | 9.44° C | 64% | 1015.5 hPa | - | - | - | - |
| 1778211021 | 9.44° C | 65% | 1015.6 hPa | - | - | - | - |
| 1778210121 | 10° C | 64% | 1015.6 hPa | - | - | - | - |
| 1778209221 | 10° C | 64% | 1015.6 hPa | - | - | - | - |
| 1778208321 | 10° C | 64% | 1015.5 hPa | - | - | - | - |
| 1778207420 | 10.56° C | 64% | 1015.5 hPa | - | - | - | - |
| 1778206520 | 10° C | 66% | 1015.7 hPa | - | - | - | - |
| 1778205620 | 10° C | 67% | 1015.6 hPa | - | - | - | - |
| 1778204720 | 10.56° C | 66% | 1015.8 hPa | - | - | - | - |
* Rain since midnight (hover to see other rain measurements)
** Current wind speed in m/s (hover to see current wind gust speed)